Location: Jamie Towers
(40.8192°N, 73.8531°W)
Time: 08:51:46
(UTC+00:00)

Daily predictions for brighter satellites

Satellite Brightness Start Highest point End
(mag) Time Altitude Azimuth Time Altitude Azimuth Time Altitude Azimuth
Unknown 3.8 22:35:27 10° WSW 22:39:35 74° NW 22:43:43 10° NE
Unknown 3.8 22:35:27 10° WSW 22:39:35 74° NW 22:43:45 10° NE
Cosmos 1626 2.1 22:35:57 10° N 22:39:40 64° E 22:43:20 10° SSE
Lacrosse 5 4.1 22:38:24 10° NNW 22:40:33 12° N 22:42:42 10° NNE
Unknown 3.9 22:37:14 10° WSW 22:41:21 69° NW 22:45:30 10° NE
Cosmos 2228 3.7 22:38:04 10° SSE 22:42:01 34° E 22:45:59 10° NNE
Unknown 4.0 22:40:33 10° WSW 22:44:40 65° NW 22:48:48 10° NE
Cosmos 1726 3.6 22:42:36 10° SE 22:44:58 17° E 22:47:21 10° NE
Unknown 4.0 22:41:11 10° WSW 22:45:18 67° NW 22:49:26 10° NE
Unknown 4.0 22:42:09 10° WSW 22:46:16 66° NW 22:50:24 10° NE
Atlas Centaur 2 4.3 22:42:30 10° WSW 22:47:14 21° SSW 22:51:17 10° SSE
Unknown 4.0 22:45:22 10° WSW 22:49:29 64° NW 22:53:36 10° NE
Cosmos 1939 Rocket 4.4 22:49:28 10° ESE 22:52:00 17° ENE 22:54:34 10° NNE
COBE Rocket 4.0 22:47:01 10° NNE 22:52:13 74° E 22:57:17 10° S
NOAA 12 4.1 22:47:25 10° SSE 22:52:41 89° ENE 22:58:00 10° NNW
Unknown 4.1 22:48:50 10° WSW 22:52:55 58° NW 22:57:01 10° NE
Cosmos 921 Rocket 3.7 22:49:57 10° SSE 22:54:00 34° E 22:58:02 10° NE
Unknown 4.2 22:50:30 10° WSW 22:54:35 57° NW 22:58:40 10° NE
COSMO-SKYMED 1 2.6 22:51:35 10° NNE 22:55:54 65° E 23:00:12 10° S
Unknown 4.2 22:52:12 10° WSW 22:56:16 55° NW 23:00:21 10° NE
Cosmos 304 Rocket 4.3 22:52:16 10° SSW 22:57:01 64° WNW 23:01:49 10° NNE
Unknown 4.3 22:53:53 10° WSW 22:57:56 53° NW 23:02:01 10° NE
Envisat 3.0 22:53:24 10° SSE 22:58:28 77° ENE 23:03:33 10° N
Cosmos 1821 Rocket 4.0 22:52:43 10° N 22:58:47 63° E 23:04:52 10° SSE
CZ-4 R/B 4.5 22:56:34 10° SSE 23:00:37 59° ENE 23:04:41 10° N
Unknown 4.4 22:57:12 10° WSW 23:01:14 50° NNW 23:05:17 10° NE
Lacrosse 5 rocket 2.2 22:58:30 10° NNW 23:01:53 30° NE 23:04:46 13° E
EO 1 Delta rocket 4.4 22:58:18 10° SE 23:02:29 33° ENE 23:06:40 10° N
Nadezhda 3 Rocket 4.0 22:56:17 10° S 23:02:31 82° E 23:08:52 10° N
Unknown 4.4 22:58:56 10° WSW 23:02:57 49° NNW 23:06:59 10° NE
Unknown 4.5 23:00:36 10° WSW 23:04:36 48° NNW 23:08:38 10° NE
COSMOS 2406 4.2 22:59:54 10° N 23:04:46 27° NE 23:09:16 11° ESE
Unknown 4.5 23:02:12 10° WSW 23:06:13 47° NNW 23:10:13 10° NE
Cosmos 2084 3.5 23:03:16 10° SSW 23:07:50 83° ESE 23:12:20 10° NE
Cosmos 2082 Rocket 4.1 23:06:43 10° NNE 23:08:04 11° NE 23:09:25 10° ENE
Cosmos 1825 Rocket 3.5 23:04:07 10° N 23:08:30 84° E 23:12:53 10° S
CZ-4 R/B 1.4 23:04:58 10° SSE 23:09:03 71° ENE 23:13:15 10° N
Cosmos 1953 Rocket 3.6 23:04:51 10° N 23:09:11 56° E 23:13:26 10° SSE
Unknown 4.5 23:05:23 10° WSW 23:09:23 47° NNW 23:13:25 10° NE
FengYun 1-2 T 4.2 23:04:16 10° SSE 23:09:53 78° ENE 23:15:32 10° N
USA 116 3.3 23:07:38 10° NNE 23:10:41 52° E 23:13:53 10° S
Cosmos 1242 Rocket 3.4 23:07:42 10° NNE 23:10:59 29° ENE 23:14:14 10° SE
Cosmos 1934 Rocket 4.1 23:08:52 10° N 23:15:03 54° E 23:21:16 10° SSE
CSL-04 Debris 4.1 23:10:36 10° SSE 23:15:59 69° ENE 23:21:26 10° N
Cosmos 1908 4.1 23:13:39 10° SSE 23:17:01 28° E 23:20:24 10° NNE
Cosmos 1328 4.4 23:13:57 10° N 23:17:38 35° ENE 23:21:16 10° SE
Cosmos 1606 Rocket 3.8 23:16:16 10° SSW 23:20:39 72° W 23:25:02 10° N
Cosmos 1354 Rocket 4.0 23:21:57 10° NNW 23:27:13 88° ENE 23:32:26 10° SSE
YAOGAN 6 2.9 23:23:59 10° S 23:27:39 70° W 23:31:19 10° NNW
Meteor 1-16 Rocket 4.1 23:25:16 10° S 23:30:55 84° E 23:36:25 10° N
BREEZE-M DEB (TANK) 2.5 23:27:25 10° SW 23:32:55 70° SSE 23:34:00 34° ENE
SWAS 4.4 23:29:12 10° SSW 23:33:27 85° WNW 23:37:46 10° NNE
Cosmos 1844 Rocket 3.3 23:27:54 10° SW 23:33:28 58° WNW 23:39:03 10° NNE
ASTEX 1 4.0 23:34:57 10° N 23:39:49 60° W 23:44:41 10° SSW
Ariane Rocket 3.1 23:36:07 10° SSE 23:41:04 55° ENE 23:46:03 10° N
Abrixas rocket 3.9 23:38:45 10° S 23:40:16 19° SSE 23:40:16 19° SSE
Cosmos 968 Rocket 4.1 23:36:38 10° NNW 23:41:50 60° WSW 23:46:59 10° S
Meteor 2-10 3.8 23:37:21 10° S 23:42:30 82° E 23:47:34 10° NNE
YAOGAN 1 3.2 23:43:09 10° S 23:47:23 56° W 23:51:39 10° NNW
Cosmos 2278 Rocket 2.4 23:42:07 10° S 23:47:27 44° ESE 23:52:40 11° NE
Shenzhou-11 Module 1.9 23:47:27 10° W 23:50:05 65° NNW 23:50:05 65° NNW
HJ-1C 3.9 23:51:06 42° NE 23:51:06 42° NE 23:53:45 10° N
Cosmos 1844 4.5 23:44:57 10° SW 23:50:31 54° WNW 23:56:10 10° NNE
SL-4 R/B 1.5 23:49:49 10° NW 23:53:37 88° NNE 23:54:12 61° ESE
CZ-2D R/B 3.2 23:50:16 10° S 23:54:05 82° WSW 23:57:57 10° NNW
OAO 2 Rocket 4.0 23:49:23 10° WSW 23:54:26 45° S 23:56:17 33° SE
